User: anonymous   Login
Location: Unspecified
(0.0000°N, 0.0000°E)
Time: 16:45:55
(UTC+00:00)
Language:

ETS 8 - Orbit

View from above orbital plane
View from above orbital plane
View from above satellite
View from above satellite

Ground track
Ground track

The orbit data is extracted from the following two-line orbital elements,

1 29656U 06059A   17205.62092075 +.00000011 +00000-0 +00000-0 0  9996
2 29656 005.6643 059.0468 0003668 153.9897 206.0852 00.99004400038832
Epoch (UTC): 24 July 2017 14:54:07
Eccentricity: 0.0003668
inclination: 5.6643°
perigee height: 36129 km
apogee height: 36161 km
right ascension of ascending node: 59.0468°
argument of perigee: 153.9897°
revolutions per day: 0.99004400
mean anomaly at epoch: 206.0852°
orbit number at epoch: 3883

The dashed part of the orbit path shows where the satellite is in the earth's shadow,  

DLR